Regional Weather Roundup
Issued by NWS

Home | Current Version | Previous Version | Graphics & Text | Print | Product List | Glossary On
Versions: 1 2 3 4 5 6 7 8 9 10 11 12 13 14 15 16 17 18 19 20 21 22 23 24 25 26 27 28 29 30 31 32 33 34 35 36 37 38 39 40 41 42 43 44 45 46 47 48 49 50
053
ASUS43 KDTX 171401
RWRMI
MICHIGAN HOURLY REGIONAL WEATHER ROUNDUP
NATIONAL WEATHER SERVICE DETROIT/PONTIAC MI
1000 AM EDT THU AUG 17 2017

NOTE: "FAIR" INDICATES FEW OR NO CLOUDS BELOW 12,000 FEET WITH NO
SIGNIFICANT WEATHER AND/OR OBSTRUCTION TO VISIBILITY.

MIZ047>049-052>055-059>063-066>070-074>076-081>083-171500-
SOUTHEAST LOWER MICHIGAN

CITY           SKY/WX    TMP DP  RH WIND       PRES   REMARKS
ADRIAN         CLOUDY    73  68  84 S6        29.89F HAZE
ALMA           CLOUDY    72  69  90 S14       29.83S
ANN ARBOR      CLOUDY    73  71  93 VRB3      29.87F FOG
BAD AXE        RAIN      67  64  90 SE10G16   29.89F
CARO           CLOUDY    67  65  91 SE8       29.85F
DETROIT CITY   RAIN      72  71  97 SE7       29.88F FOG
DETROIT        CLOUDY    74  72  93 SE6       29.88F FOG
FLINT          PTSUNNY   70  68  93 SE9       29.85F
GROSSE ILE     CLOUDY    75  72  89 S7        29.87F
HILLSDALE      CLOUDY    72  70  94 S9        29.87F FOG
HOWELL         LGT RAIN  72  70  93 S7        29.87F

CITY           SKY/WX    TMP DP  RH WIND       PRES   REMARKS
JACKSON        PTSUNNY   74  70  87 S9        29.86F
LAMBERTVILLE   CLOUDY    75  72  92 S8        29.87F
LANSING        MOSUNNY   74  69  85 S14G20    29.84F
LAPEER         LGT RAIN  68  67  96 SE5       29.88F
MASON          CLOUDY    72  70  94 S6        29.85F FOG
MONROE         CLOUDY    75  72  91 S8        29.88R
MT. CLEMENS    LGT RAIN  72  72 100 SE8       29.87F
PONTIAC        CLOUDY    72  70  93 S8        29.87F
PORT HOPE        N/A     68  65  90 SE9       29.87F
PORT HURON     LGT RAIN  70  66  88 SE7       29.89F
TRI CITIES     CLOUDY    71  70  96 SE10      29.84S
MIDLAND        CLOUDY    72  68  88 SE8       29.82F
TROY           HVY RAIN  71  70  96 SE5       29.90F
SAGINAW HB     CLOUDY    70  68  94 SE8       29.83F
$$
MIZ043>046-050>051-056>058-064>065-071>073-077>080-171500-
SOUTHWEST LOWER MICHIGAN

CITY           SKY/WX    TMP DP  RH WIND       PRES   REMARKS
BATTLE CREEK   CLOUDY    76  72  87 S10       29.84S
BENTON HARBOR  LGT RAIN  75  68  78 SW8       29.81S
BIG RAPIDS     CLOUDY    69  67  91 S8        29.79F
COLDWATER      CLOUDY    76  73  88 SW8       29.85F
FREMONT        RAIN      72  72 100 S9        29.78F
HOLLAND        CLOUDY    75  70  84 SW13      29.80S
GRAND RAPIDS   PTSUNNY   75  72  90 S10       29.80F
IONIA          CLOUDY    73  71  92 S7        29.81F
KALAMAZOO      PTSUNNY   76  69  79 S13       29.82F
LUDINGTON      CLOUDY    71  69  93 S7        29.74F
MARSHALL       CLOUDY    75  73  93 S10       29.85S
MOUNT PLEASANT CLOUDY    73  69  89 S7        29.81F
MUSKEGON       TSTM      73  71  93 S15       29.78S FOG
SOUTH HAVEN    LGT RAIN  75  71  85 SW7       29.81S
$$
MIZ016>042-171500-
NORTHERN LOWER MICHIGAN

CITY           SKY/WX    TMP DP  RH WIND       PRES   REMARKS
ALPENA         LGT RAIN  66  66 100 SE14      29.86F
BEAVER ISLAND  CLOUDY    66  65  96 SE8G17    29.75S
BELLAIRE       CLOUDY    68  64  85 S7        29.77F
CADILLAC       HVY RAIN  69  66  89 SE7       29.79F
CHARLEVOIX     CLOUDY    67  67 100 SE15      29.78F
FRANKFORT      RAIN      71  71 100 S6        29.76S
GAYLORD        CLOUDY    63  61  93 S10       29.82F
GRAYLING       CLOUDY    65  63  93 SE7       29.83S
HARBOR SPRINGS CLOUDY    65  64  95 E6        29.77F
HOUGHTON LAKE  CLOUDY    66  63  90 SE6       29.84S
MANISTEE       CLOUDY    70  69  97 VRB5      29.74
OSCODA         CLOUDY    69  65  88 SE3       29.85F
PELLSTON       RAIN      65  64  97 SE9       29.78F FOG
ROGERS CITY    RAIN      65  64  93 SE12G18   29.85F
TRAVERSE CITY  TSTM      68  64  87 SE6       29.75F FOG
$$
MIZ007>008-015-171500-
EASTERN UPPER MICHIGAN

CITY           SKY/WX    TMP DP  RH WIND       PRES   REMARKS
KINROSS        RAIN      63  62  97 E16       29.83F FOG
MACKINAC ISLAN LGT RAIN  65  65 100 SE6G20    29.79F
NEWBERRY       HVY RAIN  63  62  97 E12       29.77S
S. S. MARIE    RAIN      63  59  87 E8G17     29.84F FOG
MUNISING         N/A     65  65 100 SE9       29.69F
$$
MIZ004>006-011>014-085-171500-
CENTRAL UPPER MICHIGAN

CITY           SKY/WX    TMP DP  RH WIND       PRES   REMARKS
MANISTIQUE     RAIN      65  59  80 E14G20    29.73F
ESCANABA       LGT RAIN  69  68  96 S9G16     29.66F FOG
MENOMINEE      PTSUNNY   73  71  93 S10       29.65F
SAWYER-GWINN   CLOUDY    64  63  94 SE12G18   29.69F FOG
$$
MIZ001>003-009>011-084-171500-
WESTERN UPPER MICHIGAN

CITY           SKY/WX    TMP DP  RH WIND       PRES   REMARKS
IRON MOUNTAIN  RAIN      68  66  93 E6        29.63F VSB 1/4
HOUGHTON       LGT RAIN  62  60  93 E13       29.66F VSB 3/4
COPPER HARBOR    N/A     63  60  90 S9G21     29.69F
IRONWOOD       CLOUDY    65  63  93 E6        29.60F
$$

ABBREVIATIONS USED IN REMARKS
   TC - TEMPERATURE IN CELSIUS
  WCI - WIND CHILL INDEX
   HX - HEAT INDEX
  VSB - VISIBILITY





USA.gov is the U.S. government's official web portal to all federal, state and local government web resources and services.